Location: Chenango Forks
(42.2242°N, 75.8278°W)
Time: 14:24:15
(UTC-04:00)

Daily predictions for brighter satellites

Satellite Brightness Start Highest point End
(mag) Time Altitude Azimuth Time Altitude Azimuth Time Altitude Azimuth
Cosmos 1812 2.8 20:56:47 10° S 21:00:37 84° W 21:04:30 10° N
YAOGAN 6 3.4 20:58:06 10° S 21:01:45 54° W 21:05:23 10° NNW
Cosmos 1802 Rocket 4.1 20:57:49 10° S 21:04:07 88° W 21:10:34 10° N
Cosmos 1666 4.2 21:01:22 10° NNE 21:04:28 22° ENE 21:07:33 10° SE
Cosmos 1833 Rocket 3.4 20:59:20 10° SW 21:04:53 61° WNW 21:10:29 10° NNE
Cosmos 1743 4.2 21:02:44 10° NNE 21:05:43 21° ENE 21:08:39 10° SE
H-2A R/B 3.1 21:03:55 10° ESE 21:08:02 28° ENE 21:12:15 10° N
Cosmos 304 Rocket 4.2 21:04:46 10° S 21:09:15 40° ESE 21:13:45 10° NE
DNEPR-1 R/B 4.0 21:06:18 10° S 21:10:13 40° ESE 21:14:34 10° NE
Abrixas rocket 3.9 21:13:04 10° S 21:14:49 14° SE 21:15:56 12° ESE
ATLAS CENTAUR R/B 1.6 21:14:13 10° NNW 21:18:46 83° NE 21:23:09 12° SE
Cosmos 2208 Rocket 4.4 21:14:13 10° S 21:19:01 40° ESE 21:23:51 10° NE
ERS-2 3.3 21:15:47 10° S 21:19:17 41° W 21:22:49 10° NNW
NOSS 3-2 (A) 3.6 21:15:09 10° S 21:20:44 49° ESE 21:26:54 10° NE
Cosmos 1898 Rocket 4.4 21:16:12 10° N 21:21:02 35° ENE 21:25:14 13° SE
USA 234 3.4 21:14:42 10° NE 21:21:17 85° NW 21:27:52 10° SW
NOSS 3-2 (C) 3.9 21:18:52 10° S 21:24:10 37° ESE 21:29:58 10° NE
Okean 1 Rocket 3.0 21:20:39 10° N 21:25:01 72° E 21:29:20 10° SSE
Cosmos 1242 Rocket 3.7 21:22:52 10° NNE 21:26:07 29° ENE 21:28:22 16° SE
Cosmos 1975 Rocket 3.8 21:22:29 11° SSE 21:26:14 33° E 21:30:07 10° NNE
Cosmos 1674 Rocket 4.0 21:22:54 10° SSW 21:27:19 66° W 21:31:47 10° N
Cosmos 1378 Rocket 3.4 21:23:23 10° S 21:27:42 75° E 21:32:00 10° NNE
Cosmos 2233 Rocket 4.1 21:22:42 10° SSE 21:28:40 56° E 21:34:41 10° NNE
Resurs 01 Rocket 2.7 21:27:12 10° S 21:31:23 42° W 21:35:36 10° NNW
Atlas Centaur 2 3.0 21:29:49 10° SSW 21:31:32 13° S 21:32:12 12° SSE
ERS-1 Rocket 3.7 21:28:00 14° SE 21:31:50 38° ENE 21:36:26 10° N
MetOp-A 4.3 21:27:26 12° SSE 21:32:19 59° ENE 21:37:35 10° N
Tiangong 2 2.2 21:30:45 10° SSW 21:33:21 24° SSE 21:34:27 19° ESE
Cosmos 1975 2.9 21:30:57 10° N 21:34:59 63° E 21:38:14 15° SSE
Cosmos 2082 Rocket 3.7 21:29:46 10° SW 21:35:04 40° WNW 21:40:26 10° NNE
COSMOS 2487 3.0 21:34:05 10° SSW 21:37:32 60° WNW 21:41:02 10° NNE
Cosmos 2322 Rocket 2.9 21:32:46 10° N 21:38:04 40° ENE 21:42:01 17° ESE
Meteor 1-12 Rocket 4.4 21:36:15 10° N 21:42:10 68° ENE 21:47:14 15° SSE
SL-16 R/B 2.7 21:39:05 10° NNW 21:44:35 47° ENE 21:48:26 19° SE
Timation 2 Rocket 3.9 21:44:44 10° S 21:50:33 58° ESE 21:56:28 10° NNE
ARGOS 3.2 21:49:16 14° SSE 21:53:55 88° W 21:59:21 10° NNW
Meteor 1-19 Rocket 4.3 21:50:05 10° S 21:55:55 68° E 22:01:49 10° NNE
SPOT 5 3.5 21:54:03 22° ESE 21:56:15 36° ENE 22:00:22 10° N
GPS 2-04 Rocket1 4.1 21:54:57 10° WSW 21:58:30 26° SSW 21:59:43 22° SSE
CENTAUR R/B 3.2 21:55:22 18° SSE 21:58:36 30° ESE 22:04:11 10° NE
SJ 16-02 3.4 22:00:28 10° NNE 22:03:09 16° ENE 22:05:00 13° E
Helios 1A 3.3 22:03:55 28° SE 22:05:45 48° ENE 22:09:46 10° N
Cosmos 2298 Rocket 4.5 22:00:58 10° N 22:06:07 48° ENE 22:08:51 25° SE
ATLAS 3B R/B 3.3 22:01:11 10° SW 22:08:18 63° NW 22:15:10 10° NNE
Cosmos 1464 Rocket 4.2 22:09:53 21° SSE 22:14:00 55° E 22:20:13 10° NNE
USA 32 4.0 22:11:57 10° N 22:17:13 73° E 22:20:04 27° SSE
Cosmos 2084 3.4 22:17:48 16° SSW 22:21:05 56° ESE 22:25:07 10° NE
Terra 2.7 22:20:01 27° ESE 22:21:42 35° ENE 22:25:59 10° N
Lacrosse 5 rocket 3.4 22:21:39 10° NNW 22:25:06 22° NNE 22:27:54 12° ENE
Cosmos 1937 Rocket 3.4 22:20:21 10° NNW 22:25:31 89° ENE 22:27:55 33° SSE
USA 245 3.1 22:25:00 41° SSW 22:25:55 65° W 22:29:44 10° NNW
Cosmos 468 Rocket 4.4 22:20:50 10° SSW 22:26:04 65° WNW 22:31:18 10° NNE
Shenzhou-11 Module 1.9 22:23:39 10° W 22:26:38 77° N 22:26:59 64° ENE
Aureole 2 Rocket 3.0 22:23:57 10° N 22:26:40 33° ENE 22:26:40 33° ENE
Meteor 1-23 Rocket 4.5 22:24:26 30° SSE 22:26:50 49° E 22:32:10 10° NNE
Cosmos 2360 Rocket 2.8 22:25:12 10° NNW 22:30:38 46° ENE 22:33:03 29° ESE
ISS -3.0 22:27:30 10° WSW 22:30:41 51° NNW 22:33:53 10° NE
CZ-4C R/B 4.2 22:26:55 10° NNW 22:32:53 29° NE 22:39:07 11° E
CARTOSAT-1 4.0 22:31:49 38° ESE 22:32:55 47° ENE 22:37:04 10° N
Cosmos 1980 Rocket 4.0 22:28:30 10° NW 22:32:55 24° WSW 22:37:19 10° SSW
Cosmos 1891 Rocket 4.5 22:29:27 26° S 22:33:00 68° E 22:39:16 10° NNE
Cosmos 2219 Rocket 4.2 22:33:14 10° N 22:36:56 18° NE 22:40:01 12° E
Meteor 2-9 Rocket 4.2 22:32:38 10° NNW 22:37:57 71° W 22:40:44 29° S
Cosmos 1763 Rocket 3.6 22:34:08 12° SSW 22:39:01 79° WNW 22:44:20 10° NNE
Cosmos 841 Rocket 3.4 22:37:55 27° S 22:40:50 77° ESE 22:46:07 10° NNE
Cosmos 2333 Rocket 4.2 22:38:45 10° N 22:42:34 18° NE 22:45:46 12° E
Cosmos 540 Rocket 3.8 22:41:48 40° SE 22:42:48 45° ESE 22:47:43 10° NNE
SPOT 1/Viking Rocket 3.5 22:40:44 34° S 22:43:02 80° WSW 22:48:14 10° NNW
Okean 2 4.0 22:45:24 39° E 22:45:24 39° E 22:49:16 10° NNE
COSMOS 2428 4.1 22:41:31 10° N 22:46:21 28° NE 22:48:47 21° E
CZ-2C R/B 3.5 22:42:18 10° NNE 22:47:18 32° E 22:47:57 31° ESE
H-2A R/B 3.2 22:44:12 17° SSW 22:47:20 34° W 22:51:52 10° NNW
DMSP B5D2-2 4.3 22:43:01 10° N 22:48:18 68° WNW 22:52:04 19° SSW
Meteor 2-4 Rocket 4.0 22:45:41 17° SSW 22:49:46 62° WNW 22:55:16 10° N
Abrixas rocket 4.3 22:47:37 10° WSW 22:48:34 18° WSW 22:48:34 18° WSW
Helios 1B rocket 2.4 22:47:24 10° NNE 22:51:34 82° WNW 22:52:46 46° SSW
Cosmos 1340 Rocket 3.2 22:51:32 35° SW 22:53:01 60° WNW 22:57:03 10° N
IGS 5A 3.3 22:53:25 62° SSE 22:54:04 83° ENE 22:58:15 10° N
Cosmos 1455 Rocket 3.7 22:50:25 10° NNW 22:54:38 50° W 22:56:06 34° SSW
Cosmos 1356 Rocket 4.2 22:55:31 37° E 22:55:31 37° E 22:59:13 10° NNE
Cosmos 1833 4.1 22:53:11 32° S 22:55:56 74° ESE 23:01:38 10° NNE
ATLAS CENTAUR R/B 4.1 22:55:25 10° W 22:57:12 12° WSW 22:59:00 10° SW
Cosmos 1025 Rocket 3.4 22:59:55 47° E 22:59:55 47° E 23:04:05 10° NNE
Cosmos 372 Rocket 4.4 22:55:12 10° N 23:00:12 50° ENE 23:01:22 42° ESE
Cosmos 1356 4.0 23:02:48 49° W 23:03:09 51° WNW 23:06:33 10° N
Spot 1 4.0 23:04:56 58° SSW 23:05:31 68° WSW 23:09:36 10° NNW
Tiangong 2 4.0 23:06:40 10° WSW 23:06:45 11° WSW 23:06:45 11° WSW
BREEZE M DEB (TANK) 3.4 23:06:56 10° WNW 23:13:13 36° SW 23:13:13 36° SW
Meteor 1-29 3.6 23:10:06 10° N 23:13:30 51° WNW 23:13:38 51° W
Cosmos 2322 3.7 23:07:52 10° NNW 23:13:37 74° ENE 23:15:05 51° SE
Meteor 1-15 Rocket 4.3 23:09:12 10° NNW 23:14:57 71° W 23:16:45 44° SSW
BREEZE-M R/B 4.3 23:13:42 10° WNW 23:16:05 23° NNW 23:16:40 21° N
Cosmos 1125 Rocket 3.6 23:11:16 10° NNW 23:16:31 64° ENE 23:17:27 54° ESE
Okean 1-7 Rocket 4.3 23:18:10 41° E 23:18:10 41° E 23:22:08 10° NNE
Cosmos 292 Rocket 4.5 23:16:52 25° SW 23:19:24 50° WNW 23:24:02 10° N
Cosmos 2227 Rocket 4.3 23:21:10 12° E 23:21:10 12° E 23:22:14 10° ENE
H-2A R/B 4.4 23:20:32 12° ENE 23:21:10 13° ENE 23:23:05 10° NE
Cosmos 2322 Rocket 3.5 23:17:06 10° NW 23:21:56 30° WSW 23:23:50 24° SW
Cosmos 1092 Rocket 4.0 23:16:38 10° N 23:23:00 73° E 23:24:43 50° SSE
Cosmos 1066 Rocket 4.0 23:24:23 61° SSE 23:25:08 70° E 23:30:32 10° NNE
Cosmos 2237 Rocket 4.1 23:20:58 10° N 23:25:15 21° NE 23:27:50 16° E
SL-16 R/B 3.7 23:23:48 10° NW 23:28:21 25° WSW 23:30:19 21° SW
Nadezhda 4 Rocket 4.1 23:23:26 10° NNW 23:29:42 69° W 23:31:47 43° SSW
Cosmos 836 Rocket 4.4 23:31:57 58° SSW 23:32:59 84° WNW 23:38:15 10° NNE
Cosmos 2237 4.2 23:34:08 10° NNW 23:39:50 71° WSW 23:40:45 60° SSW
CZ-2C R/B 3.4 23:41:02 50° SW 23:41:59 58° W 23:47:25 10° NNW
SJ 16-02 1.7 23:37:47 10° NNW 23:42:00 54° W 23:42:00 54° W
Cosmos 2219 3.4 23:44:28 52° ESE 23:44:28 52° ESE 23:49:59 10° NNE
ADEOS Rocket 4.2 23:40:23 10° NE 23:44:21 23° E 23:44:21 23° E
Cosmos 1726 Rocket 3.9 23:44:23 10° N 23:48:18 57° NE 23:48:18 57° NE
CENTAUR R/B 3.2 23:42:54 10° SW 23:48:48 53° NW 23:55:38 10° NNE
Mayak 0.4 23:47:40 10° NE 23:50:06 24° ENE 23:50:06 24° ENE
Cosmos 2058 Rocket 3.8 23:48:02 10° N 23:52:00 45° ENE 23:52:00 45° ENE
